Time,TemperatureF,DewpointF,PressureIn,WindDirection,WindDirectionDegrees,WindSpeedMPH,WindSpeedGustMPH,Humidity,HourlyPrecipIn,Conditions,Clouds,dailyrainin,SoftwareType,DateUTC
2013-10-11 00:00:00,49.6,46.5,17.72,South,170,0.0,0.0,89,0.00,,,0.00,VWS V14.01,2013-10-11 04:00:00,
2013-10-11 00:01:00,49.6,46.5,17.72,South,170,0.0,0.0,89,0.00,,,0.00,VWS V14.01,2013-10-11 04:01:00,
2013-10-11 00:06:00,49.8,46.7,17.72,South,170,0.0,0.0,89,0.00,,,0.00,VWS V14.01,2013-10-11 04:06:00,
2013-10-11 00:11:00,50.0,46.9,17.72,South,170,0.0,0.0,89,0.00,,,0.00,VWS V14.01,2013-10-11 04:11:00,
2013-10-11 00:16:00,50.2,47.1,17.72,South,170,0.0,0.0,89,0.00,,,0.00,VWS V14.01,2013-10-11 04:16:00,
2013-10-11 00:21:00,50.2,47.1,17.72,South,170,0.0,0.0,89,0.00,,,0.00,VWS V14.01,2013-10-11 04:21:00,
2013-10-11 00:26:00,50.5,47.7,17.72,South,170,0.0,0.0,90,0.00,,,0.00,VWS V14.01,2013-10-11 04:26:00,
2013-10-11 00:31:00,50.9,48.1,17.72,South,170,0.0,0.0,90,0.00,,,0.00,VWS V14.01,2013-10-11 04:31:00,
2013-10-11 00:36:00,51.3,48.4,17.72,South,170,0.0,0.0,90,0.00,,,0.00,VWS V14.01,2013-10-11 04:36:00,
2013-10-11 00:41:00,51.6,49.1,17.72,South,170,0.0,0.0,91,0.00,,,0.00,VWS V14.01,2013-10-11 04:41:00,
2013-10-11 00:46:00,51.8,49.0,17.72,South,170,0.0,0.0,90,0.00,,,0.00,VWS V14.01,2013-10-11 04:46:00,
2013-10-11 00:51:00,52.0,49.1,17.72,South,170,0.0,0.0,90,0.00,,,0.00,VWS V14.01,2013-10-11 04:51:00,
2013-10-11 00:56:00,52.0,49.1,17.72,South,170,0.0,0.0,90,0.00,,,0.00,VWS V14.01,2013-10-11 04:56:00,
2013-10-11 01:01:00,51.8,49.3,17.72,South,170,0.0,0.0,91,0.00,,,0.00,VWS V14.01,2013-10-11 05:01:00,
2013-10-11 01:06:00,51.8,49.3,17.72,South,170,0.0,0.0,91,0.00,,,0.00,VWS V14.01,2013-10-11 05:06:00,
2013-10-11 01:11:00,51.6,49.1,17.72,South,170,0.0,0.0,91,0.00,,,0.00,VWS V14.01,2013-10-11 05:11:00,
2013-10-11 01:16:00,51.6,49.1,17.72,South,170,0.0,0.0,91,0.00,,,0.00,VWS V14.01,2013-10-11 05:16:00,
2013-10-11 01:21:00,51.6,49.1,17.72,South,170,0.0,0.0,91,0.00,,,0.00,VWS V14.01,2013-10-11 05:21:00,
2013-10-11 01:26:00,51.4,49.2,17.72,South,170,0.0,0.0,92,0.00,,,0.00,VWS V14.01,2013-10-11 05:26:00,
2013-10-11 01:31:00,51.3,49.0,17.72,South,170,0.0,0.0,92,0.00,,,0.00,VWS V14.01,2013-10-11 05:31:00,
2013-10-11 01:36:00,51.3,49.0,17.72,South,170,0.0,0.0,92,0.00,,,0.00,VWS V14.01,2013-10-11 05:36:00,
2013-10-11 01:41:00,51.1,48.8,17.72,South,170,0.0,0.0,92,0.00,,,0.00,VWS V14.01,2013-10-11 05:41:00,
2013-10-11 01:46:00,50.9,48.7,17.72,South,170,0.0,0.0,92,0.00,,,0.00,VWS V14.01,2013-10-11 05:46:00,
2013-10-11 01:51:00,50.9,48.7,17.72,South,170,0.0,0.0,92,0.00,,,0.00,VWS V14.01,2013-10-11 05:51:00,
2013-10-11 01:56:00,50.7,48.5,17.72,South,170,0.0,0.0,92,0.00,,,0.00,VWS V14.01,2013-10-11 05:56:00,
2013-10-11 02:01:00,50.7,48.5,17.72,South,170,0.0,0.0,92,0.00,,,0.00,VWS V14.01,2013-10-11 06:01:00,
2013-10-11 02:06:00,50.7,48.5,17.72,South,170,0.0,0.0,92,0.00,,,0.00,VWS V14.01,2013-10-11 06:06:00,
2013-10-11 02:11:00,50.9,49.0,17.72,South,170,0.0,0.0,93,0.00,,,0.00,VWS V14.01,2013-10-11 06:11:00,
2013-10-11 02:16:00,51.1,49.1,17.72,South,170,0.0,0.0,93,0.00,,,0.00,VWS V14.01,2013-10-11 06:16:00,
2013-10-11 02:21:00,51.3,49.3,17.72,South,170,0.0,0.0,93,0.00,,,0.00,VWS V14.01,2013-10-11 06:21:00,
2013-10-11 02:26:00,51.6,49.7,17.72,South,170,0.0,0.0,93,0.00,,,0.00,VWS V14.01,2013-10-11 06:26:00,
2013-10-11 02:31:00,51.6,49.7,17.72,South,170,0.0,0.0,93,0.00,,,0.00,VWS V14.01,2013-10-11 06:31:00,
2013-10-11 02:36:00,51.8,49.8,17.72,South,170,0.0,0.0,93,0.00,,,0.00,VWS V14.01,2013-10-11 06:36:00,
2013-10-11 02:41:00,51.8,49.8,17.72,South,170,0.0,0.0,93,0.00,,,0.00,VWS V14.01,2013-10-11 06:41:00,
2013-10-11 02:46:00,51.8,49.8,17.72,South,170,0.0,0.0,93,0.00,,,0.00,VWS V14.01,2013-10-11 06:46:00,
2013-10-11 02:51:00,51.8,49.8,17.72,South,170,0.0,0.0,93,0.00,,,0.00,VWS V14.01,2013-10-11 06:51:00,
2013-10-11 02:56:00,51.8,49.8,17.72,South,170,0.0,0.0,93,0.00,,,0.00,VWS V14.01,2013-10-11 06:56:00,
2013-10-11 03:01:00,51.8,49.8,17.72,South,170,0.0,0.0,93,0.00,,,0.00,VWS V14.01,2013-10-11 07:01:00,
2013-10-11 03:06:00,52.0,50.0,17.72,South,170,0.0,0.0,93,0.00,,,0.00,VWS V14.01,2013-10-11 07:06:00,
2013-10-11 03:11:00,52.0,50.0,17.72,South,170,0.0,0.0,93,0.00,,,0.00,VWS V14.01,2013-10-11 07:11:00,
2013-10-11 03:16:00,52.0,50.0,17.72,South,170,0.0,0.0,93,0.00,,,0.00,VWS V14.01,2013-10-11 07:16:00,
2013-10-11 03:21:00,52.0,50.0,17.72,South,170,0.0,0.0,93,0.00,,,0.00,VWS V14.01,2013-10-11 07:21:00,
2013-10-11 03:26:00,52.0,50.0,17.72,South,170,0.0,0.0,93,0.00,,,0.00,VWS V14.01,2013-10-11 07:26:00,
2013-10-11 03:31:00,51.8,49.8,17.72,South,170,0.0,0.0,93,0.00,,,0.00,VWS V14.01,2013-10-11 07:31:00,
2013-10-11 03:36:00,51.6,50.0,17.72,South,170,0.0,0.0,94,0.00,,,0.00,VWS V14.01,2013-10-11 07:36:00,
2013-10-11 03:41:00,51.6,50.0,17.72,South,170,0.0,0.0,94,0.00,,,0.00,VWS V14.01,2013-10-11 07:41:00,
2013-10-11 03:46:00,51.6,50.0,17.72,South,170,0.0,0.0,94,0.00,,,0.00,VWS V14.01,2013-10-11 07:46:00,
2013-10-11 03:51:00,51.6,50.0,17.72,South,170,0.0,0.0,94,0.00,,,0.00,VWS V14.01,2013-10-11 07:51:00,
2013-10-11 03:56:00,51.6,50.0,17.72,South,170,0.0,0.0,94,0.00,,,0.00,VWS V14.01,2013-10-11 07:56:00,
2013-10-11 04:01:00,51.6,50.0,17.72,South,170,0.0,0.0,94,0.00,,,0.00,VWS V14.01,2013-10-11 08:01:00,
2013-10-11 04:06:00,51.6,50.0,17.72,South,170,0.0,0.0,94,0.00,,,0.00,VWS V14.01,2013-10-11 08:06:00,
2013-10-11 04:11:00,51.6,50.0,17.72,South,176,0.0,0.0,94,0.00,,,0.00,VWS V14.01,2013-10-11 08:11:00,
2013-10-11 04:16:00,51.6,50.0,17.72,South,176,0.0,0.0,94,0.00,,,0.00,VWS V14.01,2013-10-11 08:16:00,
2013-10-11 04:21:00,51.6,50.0,17.72,South,191,0.0,0.0,94,0.00,,,0.00,VWS V14.01,2013-10-11 08:21:00,
2013-10-11 04:26:00,51.6,50.0,17.72,South,191,0.0,0.0,94,0.00,,,0.00,VWS V14.01,2013-10-11 08:26:00,
2013-10-11 04:31:00,51.6,50.0,17.72,South,191,0.0,0.0,94,0.00,,,0.00,VWS V14.01,2013-10-11 08:31:00,
2013-10-11 04:36:00,51.6,50.0,17.72,South,191,0.0,0.0,94,0.00,,,0.00,VWS V14.01,2013-10-11 08:36:00,
2013-10-11 04:41:00,51.6,50.0,17.72,South,191,0.0,0.0,94,0.00,,,0.00,VWS V14.01,2013-10-11 08:41:00,
2013-10-11 04:46:00,51.4,49.8,17.72,South,191,0.0,0.0,94,0.00,,,0.00,VWS V14.01,2013-10-11 08:46:00,
2013-10-11 04:51:00,51.3,49.9,17.72,South,191,0.0,0.0,95,0.00,,,0.00,VWS V14.01,2013-10-11 08:51:00,
2013-10-11 04:56:00,51.3,49.9,17.72,South,191,0.0,0.0,95,0.00,,,0.00,VWS V14.01,2013-10-11 08:56:00,
2013-10-11 05:01:00,51.1,49.7,17.72,South,191,0.0,0.0,95,0.00,,,0.00,VWS V14.01,2013-10-11 09:01:00,
2013-10-11 05:06:00,51.1,49.7,17.72,South,191,0.0,0.0,95,0.00,,,0.00,VWS V14.01,2013-10-11 09:06:00,
2013-10-11 05:11:00,51.1,49.7,17.72,South,191,0.0,0.0,95,0.00,,,0.00,VWS V14.01,2013-10-11 09:11:00,
2013-10-11 05:16:00,51.1,49.7,17.72,South,191,0.0,0.0,95,0.00,,,0.00,VWS V14.01,2013-10-11 09:16:00,
2013-10-11 05:21:00,51.3,49.9,17.72,South,191,0.0,0.0,95,0.00,,,0.00,VWS V14.01,2013-10-11 09:21:00,
2013-10-11 05:26:00,51.3,49.9,17.72,South,191,0.0,0.0,95,0.00,,,0.00,VWS V14.01,2013-10-11 09:26:00,
2013-10-11 05:31:00,51.3,49.9,17.72,South,191,0.0,0.0,95,0.00,,,0.00,VWS V14.01,2013-10-11 09:31:00,
2013-10-11 05:36:00,51.3,49.9,17.72,South,191,0.0,0.0,95,0.00,,,0.00,VWS V14.01,2013-10-11 09:36:00,
2013-10-11 05:41:00,51.3,49.9,17.72,South,191,0.0,0.0,95,0.00,,,0.00,VWS V14.01,2013-10-11 09:41:00,
2013-10-11 05:46:00,51.3,49.9,17.72,South,191,0.0,0.0,95,0.00,,,0.00,VWS V14.01,2013-10-11 09:46:00,
2013-10-11 05:51:00,51.3,49.9,17.72,South,191,0.0,0.0,95,0.00,,,0.00,VWS V14.01,2013-10-11 09:51:00,
2013-10-11 05:56:00,51.3,49.9,17.72,South,191,0.0,0.0,95,0.00,,,0.00,VWS V14.01,2013-10-11 09:56:00,
2013-10-11 06:01:00,51.3,49.9,17.72,South,191,0.0,0.0,95,0.00,,,0.00,VWS V14.01,2013-10-11 10:01:00,
2013-10-11 06:06:00,51.1,49.7,17.72,South,191,0.0,0.0,95,0.00,,,0.00,VWS V14.01,2013-10-11 10:06:00,
2013-10-11 06:11:00,51.1,49.7,17.72,South,191,0.0,0.0,95,0.00,,,0.00,VWS V14.01,2013-10-11 10:11:00,
2013-10-11 06:16:00,51.1,49.7,17.72,South,191,0.0,0.0,95,0.00,,,0.00,VWS V14.01,2013-10-11 10:16:00,
2013-10-11 06:21:00,50.9,49.5,17.72,South,191,0.0,0.0,95,0.00,,,0.00,VWS V14.01,2013-10-11 10:21:00,
2013-10-11 06:26:00,50.9,49.5,17.72,South,191,0.0,0.0,95,0.00,,,0.00,VWS V14.01,2013-10-11 10:26:00,
2013-10-11 06:31:00,50.9,49.5,17.72,South,191,0.0,0.0,95,0.00,,,0.00,VWS V14.01,2013-10-11 10:31:00,
2013-10-11 06:36:00,50.7,49.3,17.72,South,191,0.0,0.0,95,0.00,,,0.00,VWS V14.01,2013-10-11 10:36:00,
2013-10-11 06:41:00,50.7,49.3,17.72,South,191,0.0,0.0,95,0.00,,,0.00,VWS V14.01,2013-10-11 10:41:00,
2013-10-11 06:46:00,50.7,49.3,17.72,South,191,0.0,0.0,95,0.00,,,0.00,VWS V14.01,2013-10-11 10:46:00,
2013-10-11 06:51:00,50.7,49.6,17.72,South,191,0.0,0.0,96,0.00,,,0.00,VWS V14.01,2013-10-11 10:51:00,
2013-10-11 06:56:00,50.7,49.6,17.72,South,191,0.0,0.0,96,0.00,,,0.00,VWS V14.01,2013-10-11 10:56:00,
2013-10-11 07:00:00,50.7,49.6,17.72,South,191,0.0,0.0,96,0.00,,,0.00,VWS V14.01,2013-10-11 11:00:00,
2013-10-11 07:06:00,50.7,49.6,17.72,South,191,0.0,0.0,96,0.00,,,0.00,VWS V14.01,2013-10-11 11:06:00,
2013-10-11 07:10:00,50.7,49.6,17.72,South,191,0.0,0.0,96,0.00,,,0.00,VWS V14.01,2013-10-11 11:10:00,
2013-10-11 07:15:00,50.7,49.6,17.72,South,191,0.0,0.0,96,0.00,,,0.00,VWS V14.01,2013-10-11 11:15:00,
2013-10-11 07:20:00,50.5,49.2,17.72,South,191,0.0,0.0,95,0.00,,,0.00,VWS V14.01,2013-10-11 11:20:00,
2013-10-11 07:25:00,50.4,49.0,17.72,South,191,0.0,0.0,95,0.00,,,0.00,VWS V14.01,2013-10-11 11:25:00,
2013-10-11 07:30:00,50.2,49.1,17.72,South,191,0.0,0.0,96,0.00,,,0.00,VWS V14.01,2013-10-11 11:30:00,
2013-10-11 07:35:00,50.2,49.1,17.72,South,191,0.0,0.0,96,0.00,,,0.00,VWS V14.01,2013-10-11 11:35:00,
2013-10-11 07:40:00,50.4,49.3,17.72,South,191,0.0,0.0,96,0.00,,,0.00,VWS V14.01,2013-10-11 11:40:00,
2013-10-11 07:45:00,50.4,49.3,17.72,South,191,0.0,0.0,96,0.00,,,0.00,VWS V14.01,2013-10-11 11:45:00,
2013-10-11 07:50:00,50.5,49.5,17.72,South,191,0.0,0.0,96,0.00,,,0.00,VWS V14.01,2013-10-11 11:50:00,
2013-10-11 07:55:00,50.7,49.6,17.72,South,191,0.0,0.0,96,0.00,,,0.00,VWS V14.01,2013-10-11 11:55:00,
2013-10-11 08:00:00,50.9,49.8,17.72,SW,216,0.0,0.0,96,0.00,,,0.00,VWS V14.01,2013-10-11 12:00:00,
2013-10-11 08:05:00,51.3,50.2,17.72,SW,216,0.0,0.0,96,0.00,,,0.00,VWS V14.01,2013-10-11 12:05:00,
2013-10-11 08:10:00,51.6,50.5,17.72,SW,216,0.0,0.0,96,0.00,,,0.00,VWS V14.01,2013-10-11 12:10:00,
2013-10-11 08:15:00,51.8,50.7,17.72,SW,216,0.0,0.0,96,0.00,,,0.00,VWS V14.01,2013-10-11 12:15:00,
2013-10-11 08:20:00,52.0,50.6,17.72,SW,216,0.0,0.0,95,0.00,,,0.00,VWS V14.01,2013-10-11 12:20:00,
2013-10-11 08:25:00,52.5,51.1,17.72,SW,216,0.0,0.0,95,0.00,,,0.00,VWS V14.01,2013-10-11 12:25:00,
2013-10-11 08:30:00,52.5,51.1,17.72,SW,216,0.0,0.0,95,0.00,,,0.00,VWS V14.01,2013-10-11 12:30:00,
2013-10-11 08:35:00,53.2,52.1,17.72,SW,216,0.0,0.0,96,0.00,,,0.00,VWS V14.01,2013-10-11 12:35:00,
2013-10-11 08:40:00,53.8,52.4,17.72,SW,216,0.0,0.0,95,0.00,,,0.00,VWS V14.01,2013-10-11 12:40:00,
2013-10-11 08:45:00,54.3,52.9,17.72,SW,235,0.0,0.0,95,0.00,,,0.00,VWS V14.01,2013-10-11 12:45:00,
2013-10-11 08:50:00,55.0,53.6,17.72,South,175,0.0,0.0,95,0.00,,,0.00,VWS V14.01,2013-10-11 12:50:00,
2013-10-11 08:55:00,55.6,54.2,17.72,South,184,0.0,0.0,95,0.00,,,0.00,VWS V14.01,2013-10-11 12:55:00,
2013-10-11 09:00:00,55.9,54.5,17.72,SW,223,0.0,0.0,95,0.00,,,0.00,VWS V14.01,2013-10-11 13:00:00,
2013-10-11 09:05:00,56.1,54.7,17.72,SW,215,0.0,0.0,95,0.00,,,0.00,VWS V14.01,2013-10-11 13:05:00,
2013-10-11 09:10:00,56.5,55.1,17.72,South,187,0.0,0.0,95,0.00,,,0.00,VWS V14.01,2013-10-11 13:10:00,
2013-10-11 09:15:00,56.7,55.2,17.72,SW,222,0.0,0.0,95,0.00,,,0.00,VWS V14.01,2013-10-11 13:15:00,
2013-10-11 09:20:00,57.6,55.8,17.72,SSE,154,0.0,2.7,94,0.00,,,0.00,VWS V14.01,2013-10-11 13:20:00,
2013-10-11 09:25:00,58.8,57.1,17.72,SSW,199,0.0,0.0,94,0.00,,,0.00,VWS V14.01,2013-10-11 13:25:00,
2013-10-11 09:30:00,60.3,58.2,17.72,SSE,159,0.0,3.6,93,0.00,,,0.00,VWS V14.01,2013-10-11 13:30:00,
2013-10-11 09:35:00,61.3,58.4,17.72,SW,214,0.0,0.0,90,0.00,,,0.00,VWS V14.01,2013-10-11 13:35:00,
2013-10-11 09:40:00,61.7,58.1,17.72,NNE,18,0.0,0.0,88,0.00,,,0.00,VWS V14.01,2013-10-11 13:40:00,
2013-10-11 09:45:00,62.2,56.7,17.72,SSE,148,2.2,2.2,82,0.00,,,0.00,VWS V14.01,2013-10-11 13:45:00,
2013-10-11 09:50:00,62.8,55.8,17.72,SW,233,0.0,2.2,78,0.00,,,0.00,VWS V14.01,2013-10-11 13:50:00,
2013-10-11 09:55:00,63.1,54.3,17.72,North,353,0.0,0.0,73,0.00,,,0.00,VWS V14.01,2013-10-11 13:55:00,
2013-10-11 10:00:00,63.3,54.5,17.72,SW,215,0.0,0.0,73,0.00,,,0.00,VWS V14.01,2013-10-11 14:00:00,
2013-10-11 10:05:00,63.5,53.9,17.72,SW,215,0.0,0.0,71,0.00,,,0.00,VWS V14.01,2013-10-11 14:05:00,
2013-10-11 10:10:00,64.0,54.1,17.72,SW,215,0.0,0.0,70,0.00,,,0.00,VWS V14.01,2013-10-11 14:10:00,
2013-10-11 10:15:00,64.6,53.8,17.72,SSW,205,2.2,2.2,68,0.00,,,0.00,VWS V14.01,2013-10-11 14:15:00,
2013-10-11 10:20:00,65.1,53.9,17.72,SSW,205,0.0,0.0,67,0.00,,,0.00,VWS V14.01,2013-10-11 14:20:00,
2013-10-11 10:25:00,65.7,53.6,17.72,SSW,205,4.0,4.0,65,0.00,,,0.00,VWS V14.01,2013-10-11 14:25:00,
2013-10-11 10:30:00,65.7,52.7,17.72,SSW,193,0.0,0.0,63,0.00,,,0.00,VWS V14.01,2013-10-11 14:30:00,
2013-10-11 10:35:00,66.0,51.8,17.72,SW,226,2.7,2.7,60,0.00,,,0.00,VWS V14.01,2013-10-11 14:35:00,
2013-10-11 10:40:00,66.2,50.5,17.72,SE,146,0.0,0.0,57,0.00,,,0.00,VWS V14.01,2013-10-11 14:40:00,
2013-10-11 10:45:00,66.4,51.2,17.72,SW,233,2.2,2.7,58,0.00,,,0.00,VWS V14.01,2013-10-11 14:45:00,
2013-10-11 10:50:00,66.9,50.2,17.72,SE,140,3.6,3.6,55,0.00,,,0.00,VWS V14.01,2013-10-11 14:50:00,
2013-10-11 10:55:00,67.1,50.4,17.72,SSE,153,0.0,0.0,55,0.00,,,0.00,VWS V14.01,2013-10-11 14:55:00,
2013-10-11 11:00:00,67.5,50.8,17.72,WSW,244,0.0,0.0,55,0.00,,,0.00,VWS V14.01,2013-10-11 15:00:00,
2013-10-11 11:05:00,68.2,51.4,17.72,SSW,206,0.0,0.0,55,0.00,,,0.00,VWS V14.01,2013-10-11 15:05:00,
2013-10-11 11:10:00,68.4,49.0,17.72,South,191,0.0,0.0,50,0.00,,,0.00,VWS V14.01,2013-10-11 15:10:00,
2013-10-11 11:15:00,68.0,49.2,17.72,SSE,150,0.0,0.0,51,0.00,,,0.00,VWS V14.01,2013-10-11 15:15:00,
2013-10-11 11:20:00,68.0,49.7,17.72,South,173,3.6,3.6,52,0.00,,,0.00,VWS V14.01,2013-10-11 15:20:00,
2013-10-11 11:25:00,68.0,49.2,17.72,South,173,2.2,2.2,51,0.00,,,0.00,VWS V14.01,2013-10-11 15:25:00,
2013-10-11 11:30:00,68.4,49.5,17.72,SSW,200,0.0,0.0,51,0.00,,,0.00,VWS V14.01,2013-10-11 15:30:00,
2013-10-11 11:35:00,68.7,49.9,17.72,SW,236,0.0,0.0,51,0.00,,,0.00,VWS V14.01,2013-10-11 15:35:00,
2013-10-11 11:40:00,68.9,50.0,17.72,SE,142,3.1,3.1,51,0.00,,,0.00,VWS V14.01,2013-10-11 15:40:00,
2013-10-11 11:45:00,68.7,48.8,17.72,South,182,3.6,3.6,49,0.00,,,0.00,VWS V14.01,2013-10-11 15:45:00,
2013-10-11 11:50:00,68.7,49.3,17.72,SSW,202,2.7,2.7,50,0.00,,,0.00,VWS V14.01,2013-10-11 15:50:00,
2013-10-11 11:55:00,68.9,50.0,17.72,WSW,245,0.0,0.0,51,0.00,,,0.00,VWS V14.01,2013-10-11 15:55:00,
2013-10-11 12:00:00,69.8,50.3,17.72,SW,226,0.0,0.0,50,0.00,,,0.00,VWS V14.01,2013-10-11 16:00:00,
2013-10-11 12:05:00,69.8,49.2,17.72,SSE,153,4.9,4.9,48,0.00,,,0.00,VWS V14.01,2013-10-11 16:05:00,
2013-10-11 12:10:00,69.8,49.8,17.72,WSW,241,0.0,0.0,49,0.00,,,0.00,VWS V14.01,2013-10-11 16:10:00,
2013-10-11 12:15:00,69.6,50.2,17.72,SW,236,3.1,3.1,50,0.00,,,0.00,VWS V14.01,2013-10-11 16:15:00,
2013-10-11 12:20:00,69.1,49.1,17.72,WSW,239,0.0,0.0,49,0.00,,,0.00,VWS V14.01,2013-10-11 16:20:00,
2013-10-11 12:25:00,68.9,49.0,17.72,South,190,0.0,2.2,49,0.00,,,0.00,VWS V14.01,2013-10-11 16:25:00,
2013-10-11 12:30:00,69.3,49.8,17.72,SW,230,0.0,0.0,50,0.00,,,0.00,VWS V14.01,2013-10-11 16:30:00,
2013-10-11 12:35:00,69.6,50.2,17.72,SW,222,0.0,0.0,50,0.00,,,0.00,VWS V14.01,2013-10-11 16:35:00,
2013-10-11 12:40:00,69.3,49.8,17.72,South,184,2.7,2.7,50,0.00,,,0.00,VWS V14.01,2013-10-11 16:40:00,
2013-10-11 12:45:00,69.6,50.2,17.72,SSE,159,0.0,0.0,50,0.00,,,0.00,VWS V14.01,2013-10-11 16:45:00,
2013-10-11 12:50:00,70.2,50.7,17.72,SSW,198,0.0,0.0,50,0.00,,,0.00,VWS V14.01,2013-10-11 16:50:00,
2013-10-11 12:55:00,70.7,50.6,17.72,West,275,0.0,0.0,49,0.00,,,0.00,VWS V14.01,2013-10-11 16:55:00,
2013-10-11 13:00:00,70.7,50.1,17.72,South,189,2.7,2.7,48,0.00,,,0.00,VWS V14.01,2013-10-11 17:00:00,
2013-10-11 13:05:00,70.5,49.9,17.72,WNW,289,0.0,2.2,48,0.00,,,0.00,VWS V14.01,2013-10-11 17:05:00,
2013-10-11 13:10:00,71.1,49.8,17.72,WNW,289,0.0,0.0,47,0.00,,,0.00,VWS V14.01,2013-10-11 17:10:00,
2013-10-11 13:15:00,71.2,50.0,17.72,WNW,290,2.7,2.7,47,0.00,,,0.00,VWS V14.01,2013-10-11 17:15:00,
2013-10-11 13:20:00,71.1,49.3,17.72,NNW,343,0.0,0.0,46,0.00,,,0.00,VWS V14.01,2013-10-11 17:20:00,
2013-10-11 13:25:00,70.9,49.7,17.72,SE,125,0.0,3.1,47,0.00,,,0.00,VWS V14.01,2013-10-11 17:25:00,
2013-10-11 13:30:00,70.5,49.3,17.72,South,181,2.2,2.2,47,0.00,,,0.00,VWS V14.01,2013-10-11 17:30:00,
2013-10-11 13:35:00,70.3,49.2,17.72,South,183,0.0,0.0,47,0.00,,,0.00,VWS V14.01,2013-10-11 17:35:00,
2013-10-11 13:40:00,70.2,49.6,17.72,South,177,0.0,2.7,48,0.00,,,0.00,VWS V14.01,2013-10-11 17:40:00,
2013-10-11 13:45:00,70.3,49.7,17.72,WSW,241,0.0,0.0,48,0.00,,,0.00,VWS V14.01,2013-10-11 17:45:00,
2013-10-11 13:50:00,70.3,49.2,17.72,SSE,155,2.7,2.7,47,0.00,,,0.00,VWS V14.01,2013-10-11 17:50:00,
2013-10-11 13:55:00,70.3,49.2,17.72,WSW,237,0.0,0.0,47,0.00,,,0.00,VWS V14.01,2013-10-11 17:55:00,
2013-10-11 14:00:00,71.1,49.3,17.72,West,265,0.0,0.0,46,0.00,,,0.00,VWS V14.01,2013-10-11 18:00:00,
2013-10-11 14:05:00,71.1,49.3,17.72,SSE,151,2.7,2.7,46,0.00,,,0.00,VWS V14.01,2013-10-11 18:05:00,
2013-10-11 14:10:00,71.1,49.3,17.72,SSE,165,2.7,2.7,46,0.00,,,0.00,VWS V14.01,2013-10-11 18:10:00,
2013-10-11 14:15:00,71.1,48.7,17.72,SSE,162,0.0,0.0,45,0.00,,,0.00,VWS V14.01,2013-10-11 18:15:00,
2013-10-11 14:20:00,71.1,48.7,17.72,South,184,2.2,2.2,45,0.00,,,0.00,VWS V14.01,2013-10-11 18:20:00,
2013-10-11 14:25:00,71.2,48.8,17.72,WSW,246,0.0,0.0,45,0.00,,,0.00,VWS V14.01,2013-10-11 18:25:00,
2013-10-11 14:30:00,71.4,49.0,17.72,South,184,0.0,0.0,45,0.00,,,0.00,VWS V14.01,2013-10-11 18:30:00,
2013-10-11 14:35:00,71.6,48.6,17.72,SSE,148,2.2,4.0,44,0.00,,,0.00,VWS V14.01,2013-10-11 18:35:00,
2013-10-11 14:40:00,71.6,48.6,17.72,SSE,166,0.0,0.0,44,0.00,,,0.00,VWS V14.01,2013-10-11 18:40:00,
2013-10-11 14:45:00,71.2,48.2,17.72,SSE,167,0.0,0.0,44,0.00,,,0.00,VWS V14.01,2013-10-11 18:45:00,
2013-10-11 14:50:00,71.4,48.4,17.72,South,180,0.0,0.0,44,0.00,,,0.00,VWS V14.01,2013-10-11 18:50:00,
2013-10-11 14:55:00,71.4,47.8,17.72,SSW,194,0.0,0.0,43,0.00,,,0.00,VWS V14.01,2013-10-11 18:55:00,
2013-10-11 15:00:00,71.4,47.8,17.72,SSW,212,0.0,0.0,43,0.00,,,0.00,VWS V14.01,2013-10-11 19:00:00,
2013-10-11 15:05:00,71.4,47.8,17.72,South,181,0.0,0.0,43,0.00,,,0.00,VWS V14.01,2013-10-11 19:05:00,
2013-10-11 15:10:00,71.6,47.9,17.72,WSW,238,2.7,2.7,43,0.00,,,0.00,VWS V14.01,2013-10-11 19:10:00,
2013-10-11 15:15:00,71.6,47.3,17.72,South,191,0.0,0.0,42,0.00,,,0.00,VWS V14.01,2013-10-11 19:15:00,
2013-10-11 15:20:00,71.6,47.9,17.72,South,191,0.0,0.0,43,0.00,,,0.00,VWS V14.01,2013-10-11 19:20:00,
2013-10-11 15:25:00,71.4,47.8,17.72,NW,322,0.0,0.0,43,0.00,,,0.00,VWS V14.01,2013-10-11 19:25:00,
2013-10-11 15:30:00,71.2,47.6,17.72,South,180,2.7,2.7,43,0.00,,,0.00,VWS V14.01,2013-10-11 19:30:00,
2013-10-11 15:35:00,70.7,46.5,17.72,South,174,0.0,0.0,42,0.00,,,0.00,VWS V14.01,2013-10-11 19:35:00,
2013-10-11 15:40:00,70.5,46.3,17.72,ESE,111,0.0,0.0,42,0.00,,,0.00,VWS V14.01,2013-10-11 19:40:00,
2013-10-11 15:45:00,70.3,46.2,17.72,SSW,203,0.0,0.0,42,0.00,,,0.00,VWS V14.01,2013-10-11 19:45:00,
2013-10-11 15:50:00,70.2,46.0,17.72,SSW,202,0.0,0.0,42,0.00,,,0.00,VWS V14.01,2013-10-11 19:50:00,
2013-10-11 15:55:00,69.8,45.7,17.72,SSE,159,2.2,2.2,42,0.00,,,0.00,VWS V14.01,2013-10-11 19:55:00,
2013-10-11 16:00:00,69.6,46.8,17.72,SSE,166,2.2,2.7,44,0.00,,,0.00,VWS V14.01,2013-10-11 20:00:00,
2013-10-11 16:05:00,69.1,46.9,17.72,SSW,203,2.7,2.7,45,0.00,,,0.00,VWS V14.01,2013-10-11 20:05:00,
2013-10-11 16:10:00,68.9,47.9,17.72,SSE,157,0.0,0.0,47,0.00,,,0.00,VWS V14.01,2013-10-11 20:10:00,
2013-10-11 16:15:00,68.5,48.1,17.72,SSE,166,4.0,4.0,48,0.00,,,0.00,VWS V14.01,2013-10-11 20:15:00,
2013-10-11 16:20:00,68.4,47.9,17.72,SSW,195,2.7,2.7,48,0.00,,,0.00,VWS V14.01,2013-10-11 20:20:00,
2013-10-11 16:25:00,68.2,47.8,17.72,SSW,192,3.6,3.6,48,0.00,,,0.00,VWS V14.01,2013-10-11 20:25:00,
2013-10-11 16:30:00,67.8,47.4,17.72,SSE,148,3.1,3.1,48,0.00,,,0.00,VWS V14.01,2013-10-11 20:30:00,
2013-10-11 16:35:00,67.5,46.5,17.72,SSE,166,0.0,2.2,47,0.00,,,0.00,VWS V14.01,2013-10-11 20:35:00,
2013-10-11 16:40:00,67.3,46.9,17.72,South,177,3.1,3.1,48,0.00,,,0.00,VWS V14.01,2013-10-11 20:40:00,
2013-10-11 16:45:00,66.9,46.6,17.72,SSE,161,0.0,2.2,48,0.00,,,0.00,VWS V14.01,2013-10-11 20:45:00,
2013-10-11 16:50:00,66.6,46.8,17.72,SSE,161,0.0,0.0,49,0.00,,,0.00,VWS V14.01,2013-10-11 20:50:00,
2013-10-11 16:55:00,66.4,46.7,17.72,South,187,0.0,0.0,49,0.00,,,0.00,VWS V14.01,2013-10-11 20:55:00,
2013-10-11 17:00:00,66.2,46.5,17.72,South,187,0.0,0.0,49,0.00,,,0.00,VWS V14.01,2013-10-11 21:00:00,
2013-10-11 17:05:00,66.0,46.9,17.72,South,174,2.2,2.2,50,0.00,,,0.00,VWS V14.01,2013-10-11 21:05:00,
2013-10-11 17:10:00,65.8,46.7,17.72,South,174,0.0,0.0,50,0.00,,,0.00,VWS V14.01,2013-10-11 21:10:00,
2013-10-11 17:15:00,65.7,46.5,17.72,South,174,0.0,0.0,50,0.00,,,0.00,VWS V14.01,2013-10-11 21:15:00,
2013-10-11 17:20:00,65.5,46.9,17.72,South,173,0.0,0.0,51,0.00,,,0.00,VWS V14.01,2013-10-11 21:20:00,
2013-10-11 17:25:00,65.1,46.6,17.72,South,174,0.0,0.0,51,0.00,,,0.00,VWS V14.01,2013-10-11 21:25:00,
2013-10-11 17:30:00,64.9,46.4,17.72,South,173,0.0,0.0,51,0.00,,,0.00,VWS V14.01,2013-10-11 21:30:00,
2013-10-11 17:35:00,64.6,46.6,17.72,South,173,0.0,0.0,52,0.00,,,0.00,VWS V14.01,2013-10-11 21:35:00,
2013-10-11 17:40:00,64.4,46.9,17.72,South,174,0.0,0.0,53,0.00,,,0.00,VWS V14.01,2013-10-11 21:40:00,
2013-10-11 17:45:00,63.9,46.9,17.72,South,174,0.0,0.0,54,0.00,,,0.00,VWS V14.01,2013-10-11 21:45:00,
2013-10-11 17:50:00,63.5,46.6,17.72,South,173,0.0,0.0,54,0.00,,,0.00,VWS V14.01,2013-10-11 21:50:00,
2013-10-11 17:55:00,63.0,46.6,17.72,South,174,0.0,0.0,55,0.00,,,0.00,VWS V14.01,2013-10-11 21:55:00,
2013-10-11 18:00:00,62.4,46.1,17.72,South,173,0.0,0.0,55,0.00,,,0.00,VWS V14.01,2013-10-11 22:00:00,
2013-10-11 18:05:00,61.9,45.5,17.72,South,174,0.0,0.0,55,0.00,,,0.00,VWS V14.01,2013-10-11 22:05:00,
2013-10-11 18:10:00,61.5,45.2,17.72,South,174,0.0,0.0,55,0.00,,,0.00,VWS V14.01,2013-10-11 22:10:00,
2013-10-11 18:15:00,61.0,45.2,17.72,South,174,0.0,0.0,56,0.00,,,0.00,VWS V14.01,2013-10-11 22:15:00,
2013-10-11 18:20:00,60.4,44.7,17.72,South,174,0.0,0.0,56,0.00,,,0.00,VWS V14.01,2013-10-11 22:20:00,
2013-10-11 18:25:00,60.1,44.8,17.72,South,174,0.0,0.0,57,0.00,,,0.00,VWS V14.01,2013-10-11 22:25:00,
2013-10-11 18:30:00,59.5,44.3,17.72,South,174,0.0,0.0,57,0.00,,,0.00,VWS V14.01,2013-10-11 22:30:00,
2013-10-11 18:35:00,59.2,44.0,17.72,South,174,0.0,0.0,57,0.00,,,0.00,VWS V14.01,2013-10-11 22:35:00,
2013-10-11 18:40:00,58.8,44.1,17.72,South,174,0.0,0.0,58,0.00,,,0.00,VWS V14.01,2013-10-11 22:40:00,
2013-10-11 18:45:00,58.5,44.2,17.72,South,174,0.0,0.0,59,0.00,,,0.00,VWS V14.01,2013-10-11 22:45:00,
2013-10-11 18:50:00,58.1,43.9,17.72,South,174,0.0,0.0,59,0.00,,,0.00,VWS V14.01,2013-10-11 22:50:00,
2013-10-11 18:55:00,57.7,44.0,17.72,South,174,0.0,0.0,60,0.00,,,0.00,VWS V14.01,2013-10-11 22:55:00,
2013-10-11 18:59:00,57.6,43.8,17.72,South,174,0.0,0.0,60,0.00,,,0.00,VWS V14.01,2013-10-11 22:59:00,
2013-10-11 19:04:00,57.2,43.9,17.72,South,174,0.0,0.0,61,0.00,,,0.00,VWS V14.01,2013-10-11 23:04:00,
2013-10-11 19:09:00,56.8,43.5,17.72,South,174,0.0,0.0,61,0.00,,,0.00,VWS V14.01,2013-10-11 23:09:00,
2013-10-11 19:14:00,56.7,43.8,17.72,South,174,0.0,0.0,62,0.00,,,0.00,VWS V14.01,2013-10-11 23:14:00,
2013-10-11 19:19:00,56.3,43.9,17.72,South,174,0.0,0.0,63,0.00,,,0.00,VWS V14.01,2013-10-11 23:19:00,
2013-10-11 19:24:00,56.3,43.9,17.72,South,174,0.0,0.0,63,0.00,,,0.00,VWS V14.01,2013-10-11 23:24:00,
2013-10-11 19:29:00,55.9,44.0,17.72,South,174,0.0,0.0,64,0.00,,,0.00,VWS V14.01,2013-10-11 23:29:00,
2013-10-11 19:34:00,55.9,44.0,17.72,South,174,0.0,0.0,64,0.00,,,0.00,VWS V14.01,2013-10-11 23:34:00,
2013-10-11 19:39:00,55.8,44.2,17.72,South,174,0.0,0.0,65,0.00,,,0.00,VWS V14.01,2013-10-11 23:39:00,
2013-10-11 19:44:00,55.6,44.0,17.72,South,174,0.0,0.0,65,0.00,,,0.00,VWS V14.01,2013-10-11 23:44:00,
2013-10-11 19:49:00,55.4,44.2,17.72,South,174,0.0,0.0,66,0.00,,,0.00,VWS V14.01,2013-10-11 23:49:00,
2013-10-11 19:54:00,55.4,44.2,17.72,South,174,0.0,0.0,66,0.00,,,0.00,VWS V14.01,2013-10-11 23:54:00,
2013-10-11 19:59:00,55.2,44.5,17.72,South,174,0.0,0.0,67,0.00,,,0.00,VWS V14.01,2013-10-11 23:59:00,
2013-10-11 20:04:00,55.2,44.5,17.72,South,174,0.0,0.0,67,0.00,,,0.00,VWS V14.01,2013-10-12 00:04:00,
2013-10-11 20:09:00,55.2,44.9,17.72,South,174,0.0,0.0,68,0.00,,,0.00,VWS V14.01,2013-10-12 00:09:00,
2013-10-11 20:14:00,55.0,44.7,17.72,South,174,0.0,0.0,68,0.00,,,0.00,VWS V14.01,2013-10-12 00:14:00,
2013-10-11 20:19:00,54.9,44.9,17.72,South,174,0.0,0.0,69,0.00,,,0.00,VWS V14.01,2013-10-12 00:19:00,
2013-10-11 20:24:00,54.7,44.7,17.72,South,174,0.0,0.0,69,0.00,,,0.00,VWS V14.01,2013-10-12 00:24:00,
2013-10-11 20:29:00,54.7,44.7,17.72,South,174,0.0,0.0,69,0.00,,,0.00,VWS V14.01,2013-10-12 00:29:00,
2013-10-11 20:34:00,54.5,44.9,17.72,South,174,0.0,0.0,70,0.00,,,0.00,VWS V14.01,2013-10-12 00:34:00,
2013-10-11 20:39:00,54.5,44.9,17.72,South,174,0.0,0.0,70,0.00,,,0.00,VWS V14.01,2013-10-12 00:39:00,
2013-10-11 20:44:00,54.3,45.1,17.72,South,174,0.0,0.0,71,0.00,,,0.00,VWS V14.01,2013-10-12 00:44:00,
2013-10-11 20:49:00,54.1,45.0,17.72,South,174,0.0,0.0,71,0.00,,,0.00,VWS V14.01,2013-10-12 00:49:00,
2013-10-11 20:54:00,54.1,45.0,17.72,South,174,0.0,0.0,71,0.00,,,0.00,VWS V14.01,2013-10-12 00:54:00,
2013-10-11 20:59:00,54.0,44.8,17.72,South,174,0.0,0.0,71,0.00,,,0.00,VWS V14.01,2013-10-12 00:59:00,
2013-10-11 21:04:00,54.0,45.2,17.72,South,174,0.0,0.0,72,0.00,,,0.00,VWS V14.01,2013-10-12 01:04:00,
2013-10-11 21:09:00,53.8,45.0,17.72,South,174,0.0,0.0,72,0.00,,,0.00,VWS V14.01,2013-10-12 01:09:00,
2013-10-11 21:14:00,53.8,45.3,17.72,South,174,0.0,0.0,73,0.00,,,0.00,VWS V14.01,2013-10-12 01:14:00,
2013-10-11 21:19:00,53.8,45.3,17.72,South,174,0.0,0.0,73,0.00,,,0.00,VWS V14.01,2013-10-12 01:19:00,
2013-10-11 21:24:00,53.6,45.2,17.72,South,174,0.0,0.0,73,0.00,,,0.00,VWS V14.01,2013-10-12 01:24:00,
2013-10-11 21:29:00,53.4,45.0,17.72,South,174,0.0,0.0,73,0.00,,,0.00,VWS V14.01,2013-10-12 01:29:00,
2013-10-11 21:34:00,53.2,44.8,17.72,South,174,0.0,0.0,73,0.00,,,0.00,VWS V14.01,2013-10-12 01:34:00,
2013-10-11 21:39:00,53.2,44.8,17.72,South,174,0.0,0.0,73,0.00,,,0.00,VWS V14.01,2013-10-12 01:39:00,
2013-10-11 21:44:00,53.1,44.7,17.72,South,174,0.0,0.0,73,0.00,,,0.00,VWS V14.01,2013-10-12 01:44:00,
2013-10-11 21:49:00,53.1,45.0,17.72,South,174,0.0,0.0,74,0.00,,,0.00,VWS V14.01,2013-10-12 01:49:00,
2013-10-11 21:54:00,52.9,44.8,17.72,South,174,0.0,0.0,74,0.00,,,0.00,VWS V14.01,2013-10-12 01:54:00,
2013-10-11 21:59:00,52.7,44.7,17.72,South,174,0.0,0.0,74,0.00,,,0.00,VWS V14.01,2013-10-12 01:59:00,
2013-10-11 22:04:00,52.7,44.7,17.72,South,174,0.0,0.0,74,0.00,,,0.00,VWS V14.01,2013-10-12 02:04:00,
2013-10-11 22:09:00,52.5,44.5,17.72,South,174,0.0,0.0,74,0.00,,,0.00,VWS V14.01,2013-10-12 02:09:00,
2013-10-11 22:14:00,52.3,44.3,17.72,South,174,0.0,0.0,74,0.00,,,0.00,VWS V14.01,2013-10-12 02:14:00,
2013-10-11 22:19:00,52.3,44.7,17.72,South,174,0.0,0.0,75,0.00,,,0.00,VWS V14.01,2013-10-12 02:19:00,
2013-10-11 22:24:00,52.2,44.5,17.72,South,174,0.0,0.0,75,0.00,,,0.00,VWS V14.01,2013-10-12 02:24:00,
2013-10-11 22:29:00,52.2,44.5,17.72,South,174,0.0,0.0,75,0.00,,,0.00,VWS V14.01,2013-10-12 02:29:00,
2013-10-11 22:34:00,52.0,44.3,17.72,South,174,0.0,0.0,75,0.00,,,0.00,VWS V14.01,2013-10-12 02:34:00,
2013-10-11 22:39:00,52.0,44.3,17.72,South,174,0.0,0.0,75,0.00,,,0.00,VWS V14.01,2013-10-12 02:39:00,
2013-10-11 22:44:00,52.0,44.3,17.72,South,174,0.0,0.0,75,0.00,,,0.00,VWS V14.01,2013-10-12 02:44:00,
2013-10-11 22:49:00,51.8,44.5,17.72,South,174,0.0,0.0,76,0.00,,,0.00,VWS V14.01,2013-10-12 02:49:00,
2013-10-11 22:54:00,51.8,44.5,17.72,South,174,0.0,0.0,76,0.00,,,0.00,VWS V14.01,2013-10-12 02:54:00,
2013-10-11 22:59:00,51.8,44.5,17.72,South,174,0.0,0.0,76,0.00,,,0.00,VWS V14.01,2013-10-12 02:59:00,
2013-10-11 23:04:00,51.6,44.7,17.72,South,174,0.0,0.0,77,0.00,,,0.00,VWS V14.01,2013-10-12 03:04:00,
2013-10-11 23:09:00,51.6,44.7,17.72,South,174,0.0,0.0,77,0.00,,,0.00,VWS V14.01,2013-10-12 03:09:00,
2013-10-11 23:14:00,51.4,44.5,17.72,South,174,0.0,0.0,77,0.00,,,0.00,VWS V14.01,2013-10-12 03:14:00,
2013-10-11 23:19:00,51.4,44.5,17.72,South,174,0.0,0.0,77,0.00,,,0.00,VWS V14.01,2013-10-12 03:19:00,
2013-10-11 23:24:00,51.4,44.8,17.72,South,174,0.0,0.0,78,0.00,,,0.00,VWS V14.01,2013-10-12 03:24:00,
2013-10-11 23:29:00,51.3,44.6,17.72,South,174,0.0,0.0,78,0.00,,,0.00,VWS V14.01,2013-10-12 03:29:00,
2013-10-11 23:34:00,51.3,44.6,17.72,South,174,0.0,0.0,78,0.00,,,0.00,VWS V14.01,2013-10-12 03:34:00,
2013-10-11 23:39:00,51.3,45.0,17.72,South,174,0.0,0.0,79,0.00,,,0.00,VWS V14.01,2013-10-12 03:39:00,
2013-10-11 23:44:00,51.3,45.0,17.72,South,174,0.0,0.0,79,0.00,,,0.00,VWS V14.01,2013-10-12 03:44:00,
2013-10-11 23:49:00,51.3,45.0,17.72,South,174,0.0,0.0,79,0.00,,,0.00,VWS V14.01,2013-10-12 03:49:00,
2013-10-11 23:54:00,51.3,45.3,17.72,South,174,0.0,0.0,80,0.00,,,0.00,VWS V14.01,2013-10-12 03:54:00,
2013-10-11 23:59:00,51.3,45.3,17.72,South,174,0.0,0.0,80,0.00,,,0.00,VWS V14.01,2013-10-12 03:59:00,